Printer-friendly version

IAU Minor Planet Center

Minor Planet Center

MPEC 2004-N24 : 2000 JE5

The following Minor Planet Electronic Circular may be linked-to from your own Web pages, but must not otherwise be redistributed electronically.


Read MPEC 2004-N23 Read MPEC 2004-N25


M.P.E.C. 2004-N24                                Issued 2004 July 6, 14:04 UT

     The Minor Planet Electronic Circulars contain information on unusual
         minor planets and routine data on comets.  They are published
   on behalf of Commission 20 of the International Astronomical Union by the
          Minor Planet Center, Smithsonian Astrophysical Observatory,
                          Cambridge, MA 02138, U.S.A.

         Supported in part by the Steven and Michele Kirsch Foundation
             Prepared using the Tamkin Foundation Computer Network

                              MPC@CFA.HARVARD.EDU
          URL http://cfa-www.harvard.edu/iau/mpc.html  ISSN 1523-6714

                                   2000 JE5

                           Revision to MPEC 2000-J23

Additional Observations:
     K00J05E  C2004 05 15.22257 11 30 22.30 +43 50 46.2                 EN024926
     K00J05E  C2004 05 15.22451 11 30 22.09 +43 50 39.0                 EN024926
     K00J05E  C2004 05 20.24889 11 22 44.38 +39 42 34.5                 EN024926
     K00J05E  C2004 05 20.25009 11 22 44.29 +39 42 31.1                 EN024926
     K00J05E  C2004 05 20.25131 11 22 44.17 +39 42 27.2                 EN024926

Observer details:
926 Tenagra II Observatory.  Observers P. R. Holvorcem, M. Schwartz.  0.81-m
    f/7 Ritchey-Chretien + CCD.

First and last observations above in comparison with prediction:
Residuals in seconds of arc (or two decimals in degrees), reference and Delta-T
040515 926 0.07- 0.22+    040520 926 0.05- 0.24+    MPO  2777   +0.60 day

Orbital elements:
2000 JE5
Epoch 2004 July 14.0 TT = JDT 2453200.5                 MPC
M 308.67985              (2000.0)            P               Q
n   0.71532979     Peri.  285.18747     +0.59984587     +0.61581031
a   1.2382220      Node    41.28396     +0.03471905     +0.61782948
e   0.4008367      Incl.   50.73730     -0.79936194     +0.48894212
P   1.38           H   19.1           G   0.15           U   3
Residuals in seconds of arc
000501 704  0.4+  0.0     000503 704  1.1-  1.3+    000505 858  0.3-  0.5-
000501 704  0.3+  0.1-    000503 704  0.5-  0.1+    000505 858  0.1+  0.3-
000501 704  0.9+  0.1-    000503 704  0.0   1.0+    000505 704  0.4+  0.1-
000501 704  0.1+  0.3+    000503 557  0.1+  0.8-    000505 704  0.4+  0.9+
000501 704  0.6+  0.1+    000503 557  0.3-  0.2-    000505 704  0.1+  0.6-
000501 118  0.1+  0.5+    000503 557  0.4-  0.1-    000505 704  0.1-  0.2+
000501 118  0.1-  0.2+    000503 557  0.2-  0.3-    000505 704  0.4+  0.1+
000501 118  0.1+  0.5+    000503 046  0.2-  0.3-    000505 704  0.4+  0.3+
000501 118  0.9-  0.6-    000503 046  0.6-  0.1+    000505 540  0.1-  0.5-
000502 704  0.1-  0.3+    000503 046  0.4-  0.1-    000505 540  0.6-  0.6-
000502 704  0.4-  0.9-    000503 046  0.5-  0.1-    000505 540  0.1-  0.6-
000502 704  0.2-  0.3+    000504 704  0.0   0.4-    000508 046  0.1+  0.2+
000502 704  0.4+  0.0     000504 704  0.5+  0.1+    000508 046  0.5+  0.4+
000502 704  0.3+  0.5+    000504 704  0.5+  0.2-    000508 046  1.1-  0.2+
000502 704  0.5+  1.0-    000504 704  0.7+  0.1+    000508 046  1.4+  0.3+
000502 704  0.1-  0.3+    000504 704  0.4+  0.0     000508 046  0.3+  1.3-
000502 704  0.3+  0.4+    000504 704  0.4-  0.4+    000509 540  0.0   0.3-
000502 704  1.0+  0.6+    000504 704  0.1+  0.8-    000509 540  0.3+  0.6-
000502 046  1.1-  1.5-    000504 704  0.9+  0.1-    000509 540  0.2-  0.4+
000502 046  0.8+  0.2+    000504 704  0.1+  0.4-    000509 540  0.4+  0.0
000502 046  1.7+  1.5-    000504 651  1.6-  1.6+    000515 540  0.2-  0.9+
000502 046  0.9+  0.3+    000504 651  0.2-  1.1+    000515 540  1.2+  0.2-
000502 046  1.1-  0.4-    000504 651  0.0   0.0     000515 540  0.5-  0.8-
000503 557  0.3-  0.6+    000504 557  0.1-  0.3-    000611 413  0.6+  0.2-
000503 557  0.9-  0.3-    000504 557  1.0-  0.0     000611 413  0.0   0.5+
000503 557  0.1-  0.6-    000504 557  0.6-  0.1-    000615 413  0.4-  0.3-
000503 557  0.6-  0.4-    000504 557  0.0   0.2-    000615 413  0.7-  0.2+
000503 704  0.0   0.2+    000504 557  0.4-  0.5-    000615 413  0.0   0.0
000503 704  1.7-  0.3+    000505 704  0.6+  0.1+    040515 926  0.2+  0.4+
000503 704  0.1-  0.2+    000505 704  0.2-  0.0     040515 926  0.3+  1.1-
000503 704  0.1+  0.8+    000505 704  0.5+  0.5+    040520 926  0.1-  0.2+
000503 704  0.1-  0.8+    000505 704  0.3-  1.1+    040520 926  0.0   0.4+
000503 704  1.1+  0.3+    000505 858  0.2+  0.4-    040520 926  0.3-  0.1+

Ephemeris:
2000 JE5                 a,e,i = 1.24, 0.40, 51                  q = 0.7419
Date    TT    R. A. (2000) Decl.     Delta      r     Elong.  Phase     V
2004 07 04    11 16.77   +04 43.8    1.114    1.162    65.9    53.0    21.6
2004 07 14    11 22.00   -02 09.5    1.148    1.096    60.5    53.8    21.6
2004 07 24    11 27.90   -08 49.1    1.171    1.028    55.6    54.6    21.5
2004 08 03    11 34.01   -15 19.5    1.177    0.961    51.4    55.6    21.4
2004 08 13    11 39.90   -21 44.0    1.163    0.897    48.1    57.2    21.3
2004 08 23    11 45.16   -28 04.4    1.124    0.838    45.8    59.9    21.1
2004 09 02    11 49.41   -34 18.7    1.059    0.790    44.8    64.2    21.0
2004 09 12    11 52.57   -40 21.3    0.965    0.756    45.1    70.4    20.9
2004 09 22    11 55.31   -46 06.0    0.843    0.742    46.4    78.3    20.8
2004 10 02    12 00.10   -51 29.6    0.699    0.749    48.4    87.4    20.8
2004 10 12    12 14.03   -56 44.4    0.539    0.776    50.5    97.1    20.7
2004 10 22    12 59.58   -62 19.3    0.372    0.820    52.0   107.1    20.5
2004 11 01    15 47.97   -64 24.8    0.217    0.875    51.9   116.8    20.1
2004 11 11    19 43.15   -23 21.6    0.142    0.938    64.7   107.5    18.7
2004 11 21    21 02.67   +20 43.7    0.237    1.005    87.2    79.1    18.7
2004 12 01    21 35.55   +34 58.4    0.388    1.072    92.0    66.8    19.5
2004 12 11    21 56.70   +41 12.4    0.543    1.139    91.8    59.8    20.2
2004 12 21    22 14.77   +44 58.4    0.694    1.204    90.0    54.8    20.7
2004 12 31    22 32.52   +47 48.7    0.837    1.266    87.7    50.9    21.1
2005 01 10    22 51.18   +50 16.8    0.972    1.325    85.3    47.7    21.4
2005 01 20    23 11.46   +52 38.0    1.097    1.380    82.9    45.0    21.7
2005 01 30    23 33.82   +54 58.4    1.213    1.431    80.5    42.8    22.0

Kyle E. Smalley              (C) Copyright 2004 MPC           M.P.E.C. 2004-N24

Read MPEC 2004-N23 Read MPEC 2004-N25


Our Web policy. Index to the CBAT/MPC/ICQ pages.


Valid HTML 4.01!